Wind_Speed
10 13 17 20 21 22 22 20 18 17 17 18 18 19 19 20 20 21 22 22 22 23 24 25 25 25 25 25 24 24 23 23 23 23 24 24 25 25 26 26 26 27 26 26 26 25 25 25 25 24 24 24 24 24 23 23 23 23 23 24 24 24 24 25 25 26 26 26 26 26 26 26 26 27 27 27 27 27 27 28 28 27 27 27 27 27
13 16 19 20 19 18 18 17 16 15 16 17 18 18 19 20 21 22 22 23 24 24 25 25 25 25 25 25 24 24 23 23 23 23 24 24 25 25 26 26 27 27 27 26 26 25 25 24 24 24 23 23 23 23 23 23 23 23 23 24 24 24 25 25 26 26 26 26 26 26 26 26 26 26 26 27 27 27 27 27 27 27 27 27 27 27
14 16 17 17 15 15 15 15 15 15 15 17 18 18 19 20 22 23 24 24 24 24 25 25 25 25 25 25 24 24 23 23 23 23 23 24 24 25 25 26 26 26 26 26 25 25 24 23 23 23 22 22 22 22 22 22 23 23 24 24 25 25 26 26 26 26 25 25 25 25 25 25 26 26 26 26 26 26 27 27 27 27 27 27 27 27
14 14 14 14 13 13 14 15 16 16 16 17 18 19 20 21 22 23 24 24 24 24 24 24 24 25 25 24 24 24 23 23 22 23 23 23 24 24 25 25 25 26 25 25 24 24 23 22 22 22 22 22 22 22 22 23 23 24 24 25 25 26 26 25 25 25 24 24 25 25 25 25 25 26 26 26 26 26 26 26 26 27 27 27 28 28
14 13 12 12 12 13 15 16 17 17 17 18 18 19 20 21 22 23 23 23 24 24 24 24 24 24 24 24 24 24 23 22 21 21 22 22 23 24 25 25 25 25 25 24 23 23 22 22 22 21 21 21 22 22 22 23 24 24 25 25 26 26 25 25 24 24 24 24 24 25 25 25 25 26 26 26 26 26 26 26 26 27 27 27 28 28
13 12 12 12 12 14 16 16 17 17 17 18 19 20 20 21 21 22 22 23 23 24 24 24 24 24 24 24 24 23 22 21 20 20 21 22 24 25 25 26 26 25 25 24 23 23 22 22 22 22 22 22 22 22 23 23 24 24 25 25 25 25 25 24 24 24 24 24 24 25 25 25 26 26 26 26 26 26 26 26 26 27 27 27 27 28
13 13 13 13 14 15 16 16 16 17 17 19 20 20 21 21 21 21 22 22 23 23 24 24 24 24 23 23 22 20 19 19 20 21 23 24 26 26 26 26 26 25 25 24 24 23 23 23 23 23 22 22 23 23 24 24 24 25 25 25 25 25 24 24 23 23 24 24 25 25 26 26 26 26 26 26 26 26 26 26 27 27 27 27 27 28
13 14 14 14 14 15 16 17 17 17 17 18 20 20 21 21 21 21 22 22 22 23 23 24 23 22 21 19 18 18 19 21 23 25 26 27 27 27 27 26 26 25 25 25 24 24 24 23 23 23 23 23 23 24 24 25 25 25 25 25 24 24 23 23 23 23 24 24 25 26 26 26 26 26 26 26 26 26 27 27 27 27 27 27 28 28
14 14 15 14 14 15 16 17 18 18 17 18 19 20 21 21 21 21 21 21 21 21 21 21 20 20 19 18 19 20 23 24 25 26 27 26 27 27 27 26 25 25 25 25 25 25 25 24 23 23 22 23 24 25 25 25 25 25 25 24 24 23 23 23 23 23 24 25 26 26 26 26 26 26 26 26 26 27 27 27 27 27 27 27 28 28
15 15 15 15 15 15 16 18 19 19 18 18 19 20 20 21 21 21 20 20 20 20 19 19 19 19 20 21 22 23 25 26 26 26 25 25 25 25 25 24 24 24 25 25 25 25 25 24 23 22 22 23 24 25 26 26 26 25 25 24 23 23 22 23 23 24 25 26 26 27 27 27 27 27 27 27 27 27 27 27 27 27 27 28 28 28
15 14 15 15 16 16 16 17 18 18 18 18 18 19 18 18 18 19 19 20 21 21 20 19 19 20 21 23 24 24 25 25 25 25 25 25 24 24 23 23 23 23 23 23 23 23 23 22 21 21 22 24 25 26 27 27 26 26 25 24 23 23 23 23 24 25 26 27 27 27 27 27 27 27 27 27 27 27 27 27 28 28 28 28 28 28
14 14 13 14 14 15 15 16 16 16 16 17 16 16 16 16 16 18 19 21 21 21 21 20 20 20 21 23 24 24 24 24 24 23 23 22 21 21 20 20 20 20 21 21 21 21 20 20 20 22 24 26 27 27 27 27 26 25 25 24 23 23 23 24 25 26 27 27 27 27 27 27 27 27 27 27 27 27 28 28 28 28 28 28 28 28
14 13 13 13 14 14 14 15 15 15 16 16 15 16 16 17 18 19 19 20 20 20 21 22 22 23 24 24 24 24 23 22 21 20 19 18 18 18 19 20 21 22 22 22 22 21 21 22 23 24 26 27 27 27 27 27 26 25 24 23 23 24 24 25 26 27 27 27 27 27 27 27 27 27 27 27 27 27 27 27 27 28 28 28 28 28
13 13 12 13 13 14 14 15 15 16 16 16 16 17 18 18 18 17 17 18 19 20 22 24 25 26 26 25 24 22 20 18 16 16 16 17 18 19 21 22 23 24 24 23 23 23 23 23 24 25 26 27 27 27 27 27 25 24 23 23 24 24 25 26 27 27 27 28 28 28 27 27 27 27 27 28 28 27 27 27 28 28 28 28 28 28
12 12 12 12 13 14 15 16 17 17 17 17 16 17 17 16 15 15 15 17 20 22 24 26 27 27 26 23 20 17 15 13 13 15 17 19 22 23 23 23 24 23 23 22 21 22 22 23 24 25 26 27 27 27 26 25 24 23 23 24 25 25 26 27 27 27 28 28 28 28 27 27 27 27 28 27 27 27 27 27 27 27 28 28 28 28
12 11 11 12 13 15 16 16 16 16 16 15 15 14 14 14 14 15 16 18 21 23 24 25 25 24 21 17 13 11 12 14 16 18 20 22 24 24 23 22 22 22 21 20 20 21 22 22 23 24 25 26 25 25 24 23 23 23 24 24 25 26 27 27 27 28 28 28 28 28 27 27 27 27 27 27 27 27 27 27 27 27 27 28 28 28
11 11 11 12 13 14 14 14 13 13 14 14 13 13 13 14 16 17 18 19 20 21 21 20 16 12 11 10 9 10 14 18 20 21 22 22 23 22 21 20 20 20 20 20 19 20 21 22 23 23 24 23 23 22 22 22 22 23 24 25 26 26 27 27 27 28 28 28 27 27 27 27 27 27 27 27 27 27 27 27 27 27 28 28 28 28
10 10 11 11 12 13 14 14 13 13 13 13 13 15 16 17 18 18 18 18 18 18 18 15 12 8 6 8 12 16 19 21 22 22 21 21 21 21 19 19 19 19 19 18 18 19 20 21 22 22 22 21 21 21 21 22 23 24 24 25 26 26 27 27 27 27 27 27 27 27 27 27 27 27 27 27 27 27 27 27 27 27 28 28 28 28
11 12 12 13 14 14 14 14 13 13 13 13 14 16 17 18 17 17 16 16 16 15 15 13 12 11 11 13 18 21 23 23 22 21 20 20 20 20 19 19 18 17 16 16 17 19 20 21 21 21 21 21 21 21 22 22 23 24 25 25 26 26 27 27 27 27 27 27 27 27 27 27 27 27 27 26 27 27 27 27 27 27 27 27 27 27
15 15 15 15 15 15 14 12 12 13 14 16 17 17 16 16 15 15 15 16 16 16 16 15 15 16 16 18 20 23 24 24 22 20 18 18 19 19 18 17 16 16 15 16 18 19 20 21 22 22 22 22 22 22 22 23 24 24 25 25 26 26 26 27 27 27 27 27 27 27 27 27 26 26 26 26 26 26 27 27 27 27 27 27 27 27
17 16 15 15 14 14 13 13 14 15 17 18 18 18 16 15 15 15 16 18 18 18 18 17 17 17 19 20 23 24 24 22 19 16 15 15 16 16 17 16 16 16 17 18 19 20 21 22 22 23 23 22 22 22 23 23 24 25 25 25 26 26 26 26 27 27 27 27 27 27 26 26 26 26 26 26 26 26 26 26 27 27 27 27 27 27
16 15 14 13 13 13 14 16 17 18 18 19 19 18 17 17 17 17 18 18 17 17 16 15 16 18 20 22 23 23 21 18 16 14 13 13 14 16 17 17 17 17 17 18 20 21 22 23 23 23 23 23 22 22 23 24 24 25 25 25 25 26 26 27 27 27 27 27 27 26 26 25 25 25 26 26 26 26 26 26 26 26 26 26 26 26
13 13 13 13 14 15 17 18 19 19 19 20 20 19 19 19 19 18 18 17 16 16 16 17 19 20 21 21 21 20 18 16 16 15 13 12 14 17 18 18 17 16 17 18 20 21 22 23 24 24 24 24 23 23 23 24 24 24 25 25 25 26 26 27 27 27 27 27 26 26 25 25 25 25 25 26 26 26 26 26 26 26 26 26 27 27
12 13 14 15 16 17 18 19 19 20 20 20 20 20 20 20 19 18 17 17 17 18 19 20 21 20 19 19 19 18 17 17 17 16 13 11 12 15 17 17 17 16 17 18 20 21 23 24 24 25 25 24 24 23 23 23 24 24 24 25 26 26 27 27 27 27 26 26 25 25 25 25 25 25 26 26 26 26 26 26 26 26 26 27 27 27
14 16 16 17 17 18 18 19 19 19 19 19 19 19 19 18 17 16 15 16 17 18 19 19 19 18 18 17 17 17 16 16 15 14 11 10 11 14 16 17 16 16 18 19 21 22 23 23 24 24 24 24 24 24 23 23 23 24 24 25 26 26 26 27 26 26 26 25 25 25 25 25 25 25 26 26 26 26 26 26 26 26 26 27 27 27
16 17 17 18 18 18 18 18 18 18 18 17 18 18 17 16 16 16 16 16 17 17 17 16 15 15 16 16 15 15 15 14 13 11 11 9 11 13 16 16 16 16 18 20 21 21 22 22 23 23 24 24 24 24 23 22 23 24 25 25 26 26 26 26 26 26 25 25 25 25 25 25 25 26 26 26 26 26 26 26 26 26 26 26 26 25
18 18 18 19 19 18 18 18 18 17 16 16 15 15 15 15 15 15 15 15 15 15 14 12 12 13 14 14 14 15 14 12 11 12 12 12 12 13 15 16 16 17 18 20 21 21 21 21 22 22 23 23 23 23 23 22 23 24 25 25 25 25 25 25 25 25 25 25 25 25 25 25 26 26 26 26 26 25 25 26 26 26 26 25 25 24
19 19 19 18 18 17 17 17 16 15 15 14 14 14 14 14 14 13 12 13 14 14 12 11 10 10 11 12 14 15 13 11 11 13 15 14 12 12 15 16 17 17 19 21 22 22 21 20 21 21 22 22 22 23 23 23 23 24 24 24 24 24 24 24 25 25 25 25 25 25 25 25 26 26 26 25 25 25 25 25 25 25 25 24 24 24
18 17 17 16 16 16 16 15 15 13 13 13 13 13 13 14 13 12 12 14 14 13 12 12 11 10 11 12 14 14 12 10 11 15 17 15 13 12 16 17 18 19 19 21 22 22 20 19 19 19 20 21 22 23 24 24 25 25 25 24 24 24 24 24 24 25 25 25 25 25 25 25 26 26 25 25 25 25 25 25 25 24 24 24 24 24
16 16 16 15 15 15 15 14 13 12 12 12 12 13 14 14 14 14 14 15 15 13 12 12 11 11 11 12 12 10 9 10 13 16 18 15 13 14 17 18 19 19 19 18 16 15 17 19 19 19 20 21 22 23 24 24 25 25 25 25 25 24 24 24 24 25 25 25 25 25 25 25 25 25 25 25 25 25 25 24 24 23 23 24 24 24
16 16 16 15 15 14 14 13 13 13 13 13 13 14 14 14 14 14 14 14 14 13 12 11 11 11 11 10 7 4 5 10 14 17 18 15 14 15 17 18 19 19 19 16 10 6 10 16 20 21 21 22 23 23 23 23 23 24 25 25 26 25 25 24 24 24 24 24 24 25 25 25 25 25 25 25 25 24 24 24 23 23 23 24 25 25
16 16 15 15 15 14 14 13 14 14 15 15 15 14 14 14 14 14 14 13 13 13 12 12 12 12 11 10 7 6 7 11 15 17 17 15 14 15 16 17 18 19 19 16 13 9 6 10 18 24 24 24 23 23 23 22 22 23 24 25 25 26 25 25 24 24 24 24 24 24 25 24 24 24 24 24 24 24 24 24 24 23 23 24 25 25
16 15 15 15 15 14 14 14 15 16 16 16 15 14 14 13 13 13 13 13 13 13 13 13 13 13 12 12 11 10 11 14 16 16 16 15 15 15 16 16 17 18 19 18 17 15 12 13 18 23 25 24 23 23 22 22 22 22 23 24 25 26 26 25 25 24 24 24 24 24 24 24 24 24 23 23 24 24 24 25 24 23 23 23 23 24
16 16 15 15 15 15 15 16 16 16 16 15 14 14 13 13 14 14 14 14 14 14 14 13 13 13 13 12 12 12 14 16 18 18 17 16 15 14 15 15 16 17 18 18 18 18 17 18 19 21 22 24 24 22 22 22 22 22 23 24 24 25 26 26 25 25 25 24 24 25 24 24 24 24 23 23 24 24 25 25 25 23 22 21 22 23
16 16 16 16 16 16 16 16 16 16 15 15 14 14 14 14 14 15 14 14 13 12 12 11 11 11 11 11 12 13 16 20 21 20 19 18 16 15 15 15 16 16 16 17 17 17 17 19 20 20 19 22 23 23 22 22 22 23 23 23 23 24 25 26 26 25 25 24 24 24 24 24 24 24 24 24 24 25 25 25 24 23 22 21 21 21
16 16 16 16 16 16 16 16 16 15 15 15 15 15 14 14 14 14 14 13 11 10 9 9 9 9 10 12 13 16 19 22 22 21 20 20 18 17 15 15 16 17 16 16 17 17 17 18 19 20 19 19 20 21 23 24 24 23 23 23 24 24 25 25 25 24 24 23 23 23 23 24 24 24 25 25 25 26 26 25 24 23 22 22 21 21
16 16 16 16 16 16 16 16 16 15 16 16 16 15 14 14 14 14 13 11 10 9 8 8 9 10 11 13 16 18 21 22 22 21 20 19 19 18 16 16 17 18 17 16 16 17 17 17 18 19 19 17 17 19 22 24 25 24 24 24 24 24 25 24 24 23 22 22 22 22 23 24 24 25 26 26 27 27 27 26 25 24 23 23 22 22
15 16 16 16 16 16 16 16 16 17 17 17 16 14 14 14 13 13 11 10 10 9 9 9 10 12 14 16 17 19 21 21 20 19 18 17 17 17 18 18 19 20 19 18 17 17 16 15 14 14 16 17 18 20 21 23 23 24 25 25 24 24 23 23 23 22 21 21 22 23 24 24 25 25 26 27 27 27 27 27 26 25 25 25 24 24
15 15 15 15 16 16 16 17 17 18 18 17 15 13 13 13 12 11 10 10 11 10 10 11 13 14 16 17 19 19 19 19 18 17 16 16 16 17 18 19 20 20 20 19 18 17 16 15 14 13 14 17 19 21 22 22 22 23 24 25 25 24 23 23 22 22 21 22 23 24 24 25 25 25 25 25 26 26 26 26 26 26 26 26 26 25
14 15 15 15 16 16 17 17 19 19 18 15 12 12 12 12 12 11 10 11 12 12 13 14 15 16 17 18 18 18 18 17 16 16 16 17 18 18 19 19 19 20 20 19 18 17 16 16 16 17 17 17 18 20 21 22 22 22 23 23 23 23 24 23 23 22 22 23 23 24 24 25 25 25 25 25 25 25 25 25 25 25 25 25 25 25
14 15 15 16 17 17 18 20 21 20 16 12 11 11 12 12 12 11 11 12 13 14 15 15 16 17 17 17 17 17 17 16 16 17 17 18 19 19 20 19 19 20 20 19 18 18 17 17 18 18 18 18 19 20 21 22 22 22 21 21 21 23 24 23 22 22 23 24 24 24 24 24 25 25 26 26 26 25 24 24 25 25 25 24 24 23
15 15 16 17 18 19 21 22 22 19 14 11 11 12 13 13 13 13 13 14 14 15 15 16 17 18 19 18 18 17 17 17 17 18 18 18 18 19 19 20 20 20 20 20 20 20 19 18 18 17 18 18 19 19 21 22 23 21 20 20 22 24 23 23 22 23 23 24 24 24 24 24 25 26 26 26 26 26 25 25 25 24 24 24 25 24
15 16 17 18 19 20 21 22 21 19 15 13 13 13 13 13 13 13 14 14 15 16 16 17 18 18 18 19 19 19 19 19 19 19 18 18 18 18 18 19 19 20 21 21 21 21 20 19 18 17 18 18 18 19 20 22 23 22 21 21 21 20 19 21 23 24 24 24 24 24 24 25 26 27 27 27 26 26 26 26 26 25 25 25 26 26
16 16 17 18 19 20 20 21 20 20 18 16 15 14 13 13 13 13 14 15 15 16 16 17 18 18 18 18 19 20 21 21 20 20 20 20 19 19 19 19 19 20 21 21 20 20 21 20 19 19 19 19 19 19 20 22 22 22 21 21 19 18 17 20 23 24 24 24 24 25 25 26 27 28 27 27 27 27 27 27 27 27 28 28 27 27
17 17 17 18 18 19 19 19 20 20 19 18 16 14 13 13 13 13 14 15 16 16 16 17 17 17 17 18 19 20 21 22 22 22 22 21 21 20 19 20 20 21 21 21 21 21 20 20 21 21 21 21 20 20 20 20 21 21 21 20 19 19 19 20 21 21 22 23 24 25 26 27 27 27 26 26 27 27 27 27 27 28 29 29 28 28
17 17 17 18 18 18 18 19 19 19 19 17 15 13 12 12 13 14 14 15 15 16 16 17 17 17 16 17 19 20 21 22 22 23 24 23 23 21 21 20 21 21 22 22 22 21 21 21 21 22 22 21 20 19 19 19 19 19 19 20 20 20 20 20 20 20 21 21 23 25 27 28 27 25 24 24 26 27 28 28 28 28 28 28 28 28
17 17 18 18 18 18 18 18 19 19 18 17 15 12 11 11 12 14 14 15 15 16 16 17 18 18 18 18 18 18 19 20 22 24 24 24 24 23 22 22 22 22 22 22 21 21 20 19 19 19 20 19 17 17 17 18 17 17 18 19 20 20 20 20 20 20 21 21 23 26 28 28 26 24 23 24 25 26 27 28 28 28 28 28 28 28
17 18 18 18 17 17 18 18 18 18 18 17 15 12 9 10 12 13 14 15 15 16 17 17 18 19 19 18 17 17 18 19 21 23 24 24 24 24 24 24 24 23 22 21 20 20 19 18 16 15 15 15 15 15 16 17 17 17 17 18 19 19 20 20 21 21 22 22 24 26 27 25 24 23 23 23 22 23 25 27 28 28 28 28 28 28
17 18 18 18 17 17 17 18 18 18 18 17 15 12 9 9 11 12 13 14 15 16 17 17 18 19 18 18 17 18 19 20 21 22 22 23 23 23 24 25 26 25 24 22 21 21 20 18 16 14 12 12 13 14 16 17 18 17 17 18 18 18 19 20 21 22 22 24 25 26 26 24 24 23 22 20 20 21 23 25 26 27 28 28 28 27
17 18 18 18 17 16 17 18 18 18 18 17 15 13 11 10 10 11 13 14 16 16 17 18 18 18 17 17 18 19 20 21 22 22 22 22 22 23 24 25 26 26 25 24 23 23 22 20 19 16 13 11 12 14 16 17 18 18 18 17 17 18 19 20 21 22 23 24 25 26 26 25 24 23 21 19 19 20 21 23 24 26 27 28 28 27
17 18 18 18 18 17 17 17 17 17 17 17 15 13 12 11 11 12 13 15 16 17 18 18 18 17 16 17 18 19 21 22 22 21 21 22 22 22 23 24 24 24 23 23 22 22 21 19 17 17 16 14 13 13 14 16 18 18 18 18 19 19 19 20 21 23 24 24 24 24 24 24 23 22 20 19 18 18 19 21 23 24 27 29 29 27
Wind_Direction
273 280 283 286 289 290 290 293 295 297 298 299 300 300 299 297 296 297 297 297 297 297 297 298 299 300 301 301 300 298 296 295 295 296 298 299 301 301 302 302 302 302 303 302 302 302 302 302 302 301 301 300 299 297 296 295 294 294 294 294 295 297 299 300 301 301 302 302 303 303 304 305 305 306 306 307 307 307 307 307 306 305 304 303 302 301
277 282 284 287 287 287 288 293 294 292 291 292 293 294 294 293 292 293 294 294 295 295 296 296 297 297 297 297 296 295 293 293 293 295 297 299 300 301 301 301 301 301 301 301 302 302 302 302 302 301 301 300 299 298 296 295 294 293 293 294 296 297 299 299 300 301 301 302 302 303 304 305 306 306 307 307 307 307 307 306 305 304 303 302 300 300
284 286 285 286 286 284 284 287 288 286 285 287 288 289 289 289 290 290 292 293 295 295 295 295 295 294 293 293 292 291 291 291 292 294 296 298 300 300 301 301 301 300 300 300 301 301 301 301 300 300 300 299 299 299 298 296 295 294 295 296 296 298 299 300 300 301 301 301 302 303 305 306 306 307 307 307 307 306 306 305 305 304 302 301 301 300
282 283 282 283 282 279 279 282 284 285 285 286 287 287 288 288 289 291 292 294 295 295 294 293 292 291 290 290 290 290 291 292 293 295 297 298 300 301 302 302 301 301 300 300 300 300 300 299 299 299 299 299 299 299 299 299 298 297 297 297 298 299 300 301 301 301 301 301 302 304 305 306 307 307 307 307 306 306 305 305 304 303 302 301 301 302
277 277 279 281 282 282 283 286 289 290 291 290 290 290 290 290 291 293 294 295 294 293 293 292 292 291 290 290 291 292 293 294 294 296 298 300 301 303 303 303 302 301 300 299 299 298 298 298 298 298 298 298 299 300 301 301 300 300 300 300 300 301 302 302 301 301 300 301 303 304 305 306 307 307 307 306 306 305 305 304 303 303 302 302 302 304
274 275 278 282 285 287 289 292 294 294 294 293 293 293 293 293 293 294 294 294 293 293 293 293 292 292 292 292 292 293 294 295 296 298 300 302 303 304 304 303 302 301 300 299 298 297 296 296 296 296 297 297 299 300 302 302 302 301 301 302 302 303 303 302 301 300 301 302 304 305 306 307 307 307 307 306 305 305 304 303 303 302 303 303 305 306
274 276 281 285 288 290 292 293 293 293 293 294 295 295 296 295 295 294 293 293 293 293 293 293 293 293 293 293 294 295 296 297 298 300 301 303 303 304 303 302 302 300 299 298 297 296 295 295 295 295 296 297 299 300 301 301 301 302 302 303 303 303 302 301 300 300 301 303 305 306 307 308 307 307 306 306 305 304 303 303 303 304 304 305 306 306
276 281 286 289 291 292 292 292 292 293 294 295 296 297 297 296 295 294 293 293 293 293 293 294 294 294 294 296 298 299 299 300 301 302 302 303 303 303 303 302 301 300 299 298 297 295 294 294 294 295 296 298 299 301 301 301 301 302 303 303 303 302 301 301 300 301 302 304 306 307 308 308 308 307 306 305 304 304 304 304 305 305 305 305 305 304
276 283 287 289 290 291 292 292 295 298 299 298 296 295 296 296 295 295 295 294 295 295 296 296 297 298 299 299 300 300 300 300 300 301 302 302 302 302 302 302 301 301 299 298 297 295 293 292 292 293 296 299 300 301 301 301 302 303 303 303 303 302 301 301 301 302 304 305 307 308 308 308 308 307 306 305 304 304 305 305 305 305 305 304 304 303
275 279 283 287 290 290 290 292 296 301 302 300 296 293 292 293 295 298 298 299 300 301 301 302 302 303 303 302 301 300 300 299 299 299 299 300 300 301 301 301 301 300 300 300 298 297 295 293 292 292 295 298 300 301 301 301 302 303 304 304 303 303 302 301 302 303 305 306 307 308 308 308 307 306 306 305 305 305 305 305 304 304 304 303 303 303
274 277 281 287 291 292 291 292 296 301 302 300 296 293 291 292 297 302 305 305 306 306 306 304 304 305 305 304 302 301 300 299 298 298 298 299 300 300 301 301 301 301 301 301 301 301 299 297 295 295 297 299 300 300 301 301 302 303 304 304 303 303 302 302 303 304 305 306 307 307 307 307 306 306 306 305 305 305 304 304 304 303 303 303 303 303
271 277 283 288 292 295 295 295 298 301 303 301 300 298 297 298 302 305 306 306 307 308 309 308 306 305 304 303 303 302 301 299 298 298 299 299 300 301 301 301 300 300 299 298 298 297 297 297 297 297 298 299 299 299 300 301 302 303 303 303 303 302 302 303 304 304 305 306 306 306 306 306 306 306 306 305 305 305 304 304 303 303 303 303 303 303
271 278 284 289 292 294 296 298 301 303 303 302 301 300 301 302 304 305 304 304 306 310 312 312 309 305 303 302 301 301 300 298 297 297 298 300 303 305 305 304 302 300 298 296 295 294 295 296 297 297 297 298 298 298 299 300 301 302 302 302 302 302 303 304 304 305 305 305 305 305 305 306 306 306 306 306 305 305 304 304 303 303 303 303 303 302
274 280 285 288 290 292 296 300 302 302 301 298 296 296 297 301 305 308 309 309 312 314 315 312 308 304 303 302 301 300 300 299 300 301 303 306 309 311 310 307 304 303 301 299 298 298 299 299 299 298 298 298 298 299 299 300 300 301 301 302 302 303 304 304 305 305 305 305 305 305 305 306 306 306 306 306 305 304 304 303 303 303 303 303 302 302
276 282 285 284 286 292 297 300 300 298 296 295 296 298 302 307 313 319 320 319 318 319 317 312 307 303 301 301 301 301 303 307 311 313 312 311 312 313 312 309 306 304 303 301 301 302 303 302 301 301 300 300 300 300 300 301 301 302 302 302 303 304 304 305 305 305 306 306 306 306 306 307 307 307 306 305 305 305 304 303 303 303 303 302 302 302
277 281 282 284 288 293 297 297 296 295 297 301 305 310 316 320 323 324 324 321 320 320 318 312 307 304 302 303 304 309 316 320 318 315 312 310 310 312 312 308 305 303 302 302 302 303 305 304 304 303 303 302 302 303 303 303 303 303 304 304 304 305 305 306 306 306 306 307 307 307 308 308 308 307 306 306 305 305 304 304 303 303 303 303 302 302
277 280 283 288 292 296 298 298 298 300 306 311 316 319 322 322 321 320 319 319 320 319 315 308 304 302 308 318 326 329 327 322 316 311 308 306 308 311 312 307 302 300 301 301 302 304 306 307 306 305 305 304 305 305 305 305 305 305 305 305 305 306 306 306 307 307 308 308 308 309 309 309 308 307 306 306 305 305 304 304 304 304 303 303 303 302
280 287 293 296 297 299 302 305 307 310 314 317 319 320 318 317 316 315 316 318 319 318 312 305 301 303 314 319 320 321 321 316 311 307 305 304 307 310 312 307 301 299 299 300 303 307 308 309 308 308 307 307 307 306 306 306 305 305 305 305 306 307 307 307 308 308 309 310 310 310 310 309 308 307 307 306 306 305 305 305 305 305 304 304 303 303
288 294 299 299 299 300 302 306 310 314 318 319 319 317 315 314 315 316 319 322 321 317 311 308 307 308 311 310 312 316 318 314 308 304 302 303 307 311 313 310 305 302 302 303 306 309 310 310 310 309 308 308 307 307 306 306 306 306 306 307 308 308 309 309 310 310 311 311 312 311 311 310 309 308 308 307 307 306 306 306 306 306 305 304 304 303
296 297 297 298 300 302 304 307 313 318 319 318 317 315 313 315 319 324 327 327 323 317 312 307 306 308 310 311 313 316 318 315 309 303 301 303 308 313 318 317 315 314 313 312 312 313 313 312 310 309 308 308 308 308 307 307 307 307 307 308 309 310 310 311 312 312 313 313 313 313 312 311 310 309 309 308 308 308 308 307 307 307 306 305 305 304
297 296 297 300 305 309 312 316 320 322 322 322 321 320 319 323 326 326 324 321 317 313 309 305 305 309 313 313 314 315 318 316 311 307 306 308 311 317 323 325 326 324 320 317 315 315 314 313 311 310 309 310 309 308 308 307 307 308 309 310 311 312 312 313 314 315 315 315 314 314 313 312 311 311 310 310 309 309 309 309 308 308 307 306 306 305
297 301 307 313 320 324 325 326 327 328 328 329 328 326 325 325 324 321 318 315 312 310 310 310 312 315 316 314 314 317 322 322 322 320 317 314 314 318 323 325 326 324 320 316 316 316 315 314 312 311 310 309 309 308 307 308 308 309 310 311 312 313 314 315 316 316 316 316 315 315 314 314 313 312 312 311 311 311 311 310 310 309 308 308 308 307
307 317 327 333 335 335 333 332 332 332 332 331 329 326 323 322 319 316 315 315 315 317 320 321 322 322 322 321 321 324 327 330 332 331 325 315 312 315 320 323 325 323 317 316 316 316 316 314 312 311 310 309 308 308 308 308 309 310 312 313 314 315 316 317 317 318 318 317 317 316 315 315 314 314 313 313 313 313 313 312 312 311 311 310 310 309
335 341 344 344 342 339 336 334 333 332 331 329 327 325 324 322 321 320 321 323 325 328 330 330 329 328 328 327 327 327 329 329 328 328 325 315 311 315 320 325 326 322 317 316 316 316 315 313 312 311 310 309 308 308 308 309 311 312 313 315 316 317 318 318 319 319 319 319 318 318 317 316 316 316 316 315 315 315 315 315 314 314 313 313 312 311
348 347 344 342 340 337 335 333 332 331 330 328 326 325 325 325 326 326 327 329 331 332 333 333 332 330 328 328 327 327 329 327 327 330 333 323 316 317 322 326 326 321 317 317 317 316 315 313 311 310 310 309 309 309 309 311 312 314 315 316 317 318 319 320 320 320 320 320 319 319 318 318 318 318 318 318 318 318 317 317 317 316 316 315 314 313
342 339 337 336 335 334 334 333 333 333 332 330 329 329 331 333 334 333 332 332 334 336 337 335 330 327 326 326 325 325 327 328 332 340 348 338 325 321 323 327 326 322 318 318 318 317 315 312 310 310 309 310 310 311 312 313 315 316 317 318 319 320 320 321 321 321 321 321 321 320 320 320 320 320 320 320 320 320 319 319 319 319 319 318 317 315
330 330 330 330 331 333 335 337 337 337 336 336 336 338 340 342 343 342 338 339 341 343 344 337 329 326 325 325 324 323 326 330 339 348 350 343 329 321 323 327 327 324 320 319 318 317 314 311 309 309 309 311 312 313 314 316 317 318 319 319 320 320 321 322 322 322 322 322 322 322 322 322 322 322 322 322 322 322 322 321 322 322 321 320 318 316
324 325 328 330 334 337 339 340 341 341 342 343 346 350 351 351 352 354 354 350 350 350 346 336 329 324 322 321 320 320 323 333 343 347 346 343 333 323 327 330 330 328 324 321 318 316 314 311 309 310 311 313 314 316 317 318 319 319 319 320 321 321 322 323 323 323 324 323 324 324 324 324 324 324 324 324 323 323 323 324 324 323 322 321 319 317
327 330 334 338 341 343 343 343 344 347 351 353 356 357 355 355 358 359 356 351 350 348 342 332 325 320 316 315 316 319 324 337 344 345 345 346 339 331 333 333 333 331 328 324 321 318 316 313 312 313 314 315 317 318 319 319 320 321 321 322 322 323 324 324 324 324 324 324 324 325 325 325 325 325 325 325 325 325 325 325 325 325 323 322 321 319
337 340 343 345 347 348 347 347 349 352 356 357 356 356 355 354 355 352 346 344 344 343 334 327 321 317 316 317 318 320 328 339 343 344 348 350 344 336 336 334 333 332 331 327 324 320 318 317 316 316 317 318 319 319 320 321 322 323 324 325 325 325 325 325 325 325 325 325 325 325 325 326 326 326 326 325 325 325 326 326 327 326 325 324 323 321
344 345 346 347 349 350 350 351 353 353 351 348 347 348 350 348 345 343 340 340 340 336 327 321 316 315 318 321 322 321 326 333 337 341 346 349 343 334 334 333 332 332 333 330 326 318 317 318 318 319 320 320 321 321 322 323 324 325 326 326 326 326 326 326 326 326 326 325 326 326 326 326 326 326 326 326 326 326 326 327 328 328 327 326 324 322
345 345 346 348 350 351 352 352 352 349 347 345 344 345 345 343 340 338 338 337 335 330 322 317 313 313 315 316 313 309 311 320 327 334 340 341 336 330 331 331 331 331 332 330 324 316 312 315 317 319 320 321 321 322 323 324 325 326 327 327 326 326 326 327 327 327 326 326 326 326 326 326 327 327 327 326 326 327 326 327 329 329 328 326 324 322
346 347 349 350 352 353 353 351 349 347 346 346 347 347 345 343 342 340 339 338 335 330 324 319 315 313 312 310 308 305 305 309 317 325 331 331 329 327 328 329 330 331 331 330 326 320 313 311 314 317 319 319 320 321 323 324 326 327 327 327 326 326 327 329 329 328 327 326 326 326 327 327 328 328 327 327 327 328 328 328 330 330 328 327 324 322
349 351 352 352 352 352 350 348 347 347 347 347 347 346 345 346 346 346 344 341 338 335 331 325 319 312 309 309 308 306 305 310 318 325 323 322 322 322 324 326 329 330 331 330 329 325 319 315 315 317 318 318 319 321 322 324 326 326 326 326 326 326 327 329 329 328 328 328 327 328 328 329 330 330 329 329 329 329 329 330 331 331 331 329 326 323
353 353 352 351 350 349 347 346 346 345 345 344 344 344 345 347 349 349 347 345 343 342 339 333 325 316 309 304 303 304 307 316 324 326 320 317 316 318 321 323 326 328 329 329 329 327 323 319 318 318 318 318 320 321 322 324 325 326 326 327 327 327 327 329 329 329 329 329 329 329 330 331 331 330 330 330 330 330 330 331 333 335 335 334 330 326
355 355 353 351 349 348 347 345 344 342 341 341 341 342 346 351 352 351 351 350 350 348 343 339 334 329 322 314 307 305 309 319 325 326 320 315 313 314 315 318 322 325 325 326 326 325 321 319 319 319 319 319 319 320 322 324 326 326 327 328 329 329 329 330 330 330 330 330 330 331 331 331 331 330 330 330 330 331 332 335 337 339 340 339 337 333
356 354 353 352 351 350 347 344 342 339 336 334 336 343 352 354 353 353 353 353 351 347 342 342 342 340 335 330 323 319 319 324 327 326 323 318 315 313 311 314 318 321 321 321 321 320 319 318 318 320 320 319 318 319 321 323 325 326 326 327 328 328 329 331 332 332 331 331 331 331 332 331 331 330 331 332 333 334 337 340 342 343 343 342 342 341
356 354 352 352 351 349 346 342 339 334 330 330 335 346 356 356 355 354 354 351 346 342 341 343 345 344 341 338 335 332 330 330 330 330 328 325 321 317 313 312 315 319 319 318 316 315 315 315 317 319 319 318 316 316 317 319 321 322 323 324 325 327 329 331 333 333 332 332 332 332 332 331 331 332 332 333 334 336 337 340 342 343 343 343 343 344
356 353 351 350 348 345 341 338 334 330 327 331 340 352 358 358 358 358 355 350 347 347 347 346 345 344 343 342 341 340 339 338 338 338 339 337 333 327 321 316 316 319 321 321 318 315 313 313 314 315 316 315 315 315 315 316 317 319 321 323 326 328 330 332 333 333 333 333 333 333 332 332 333 332 332 332 333 333 333 334 336 338 339 338 337 339
355 351 349 346 343 340 337 333 330 327 327 336 349 0 1 1 0 359 355 355 357 357 356 351 346 343 342 342 343 345 347 349 351 351 350 348 344 340 334 327 322 322 324 323 321 319 317 314 312 312 311 310 311 311 312 313 315 317 321 324 325 326 327 329 331 333 334 334 333 332 332 333 333 333 332 331 331 330 330 329 330 332 334 332 329 328
352 349 345 341 339 338 335 333 330 329 332 347 1 6 5 3 0 357 356 358 1 1 358 352 346 342 341 342 345 347 350 351 352 352 351 350 348 346 343 338 334 330 328 326 324 322 320 317 313 311 309 308 308 308 308 309 311 315 319 320 319 320 322 326 329 333 334 334 334 333 333 333 333 332 332 330 330 330 330 329 328 330 332 330 327 323
351 346 342 338 337 337 336 336 336 337 346 1 9 9 7 2 357 354 356 357 357 356 354 350 346 343 342 343 345 346 346 346 345 345 345 345 345 344 343 341 338 334 331 328 325 322 320 316 313 310 308 308 307 307 306 307 309 312 315 316 317 319 322 326 330 332 333 333 332 332 333 333 332 331 330 329 329 331 333 332 331 330 329 329 328 327
350 346 342 341 340 340 341 341 342 346 357 6 9 8 5 360 356 356 357 356 353 351 350 349 346 344 342 341 342 343 342 342 342 342 343 343 343 342 340 337 334 332 330 328 325 322 320 317 313 309 307 307 306 304 303 305 308 311 313 316 319 321 324 325 328 330 331 331 331 332 333 333 332 330 330 329 331 333 335 336 335 334 333 332 331 330
351 348 347 346 345 344 345 344 346 349 356 360 2 2 1 357 357 358 359 356 352 349 348 347 346 344 342 342 341 341 341 341 342 343 345 346 345 343 340 337 334 332 330 329 326 323 321 318 314 310 308 306 303 301 300 302 304 308 312 316 319 320 318 319 322 326 328 329 331 332 333 333 332 331 331 332 333 335 336 337 337 338 339 338 336 333
355 352 350 348 347 346 345 346 346 348 351 354 356 356 356 355 357 359 358 354 350 348 348 347 346 345 344 343 342 341 340 341 342 343 345 346 346 345 342 340 337 335 333 331 327 323 320 315 312 310 309 307 304 300 298 299 302 306 311 316 319 319 316 318 320 324 326 327 329 331 333 333 333 332 332 333 334 335 336 337 337 338 339 340 338 335
355 350 347 346 345 345 345 345 346 346 347 349 351 352 352 354 356 357 356 352 348 346 347 347 347 346 345 344 343 341 341 341 341 342 343 345 345 345 344 342 340 337 335 332 330 327 322 316 313 312 311 309 307 304 301 302 304 308 313 318 321 321 320 321 323 324 326 326 328 330 332 334 334 333 331 330 331 334 336 337 338 338 338 339 338 337
353 348 345 344 343 344 345 346 346 345 344 344 346 349 352 354 355 355 353 351 347 346 346 347 348 347 346 346 344 343 342 341 341 341 342 343 344 344 344 343 341 339 336 334 333 332 330 326 323 318 313 309 307 307 311 315 316 317 318 321 323 323 323 323 324 326 327 327 328 330 333 334 334 331 329 329 329 331 335 337 339 340 340 340 339 339
351 347 343 342 342 344 346 347 347 345 342 341 343 351 357 359 357 354 351 350 349 350 349 349 348 348 347 347 345 344 343 341 340 340 342 343 343 343 343 343 341 340 339 338 338 337 337 338 338 335 326 317 311 313 321 326 328 327 325 325 325 324 323 323 325 327 329 329 330 331 333 332 330 327 326 326 327 328 331 335 338 341 343 343 342 343
350 346 343 341 342 345 347 349 348 345 341 340 345 357 9 6 360 356 354 353 354 355 354 352 350 349 348 347 345 344 343 342 341 342 343 344 344 344 344 343 343 342 342 343 343 344 345 348 354 360 357 344 335 333 335 335 333 331 329 328 327 326 324 324 325 328 329 330 331 333 334 333 331 328 326 323 322 324 327 331 335 339 343 344 345 346
348 346 345 343 343 344 347 348 348 345 342 343 351 3 14 11 4 0 359 359 359 358 357 355 353 351 349 347 345 344 343 343 343 344 344 345 345 345 345 345 345 345 345 346 347 348 349 350 355 3 10 7 358 349 343 337 334 332 332 331 330 329 327 325 325 327 329 330 331 332 333 333 334 333 329 325 322 322 325 329 333 336 340 343 344 346
349 348 346 345 344 344 346 348 348 347 345 346 354 5 12 11 7 4 3 3 1 359 357 356 355 353 350 346 344 343 343 344 344 345 345 346 347 347 347 347 348 348 348 348 348 349 349 348 347 348 351 358 359 353 346 339 335 333 334 333 333 331 328 326 326 327 328 329 330 331 332 333 333 333 331 327 324 324 325 328 329 332 337 340 341 342
Height
806 806 806 806 806 805 804 804 804 803 802 802 801 801 800 800 799 799 798 798 797 796 796 795 794 794 793 793 792 792 791 791 790 789 788 787 787 786 785 784 783 782 781 780 779 778 777 777 776 775 774 774 773 772 772 771 770 769 769 768 767 766 766 765 764 763 762 761 760 759 758 757 756 754 753 752 751 750 749 748 747 746 745 743 742 741
806 805 805 805 805 804 803 803 802 802 802 801 800 800 800 799 798 797 797 796 796 795 794 793 793 792 792 791 791 790 790 789 788 788 787 786 785 784 783 782 781 780 779 778 778 777 776 775 774 774 773 772 772 771 770 769 768 768 767 766 765 765 764 763 762 761 760 759 758 757 756 755 754 753 752 751 750 748 747 746 745 744 743 742 740 739
805 805 804 804 804 803 802 802 802 802 801 800 800 799 799 798 797 796 795 795 794 794 793 792 792 791 790 790 789 789 788 787 787 786 786 785 784 783 782 781 780 779 778 777 776 775 775 774 773 772 772 771 770 769 768 767 767 766 765 765 764 763 762 761 760 759 758 757 757 756 754 753 752 751 750 749 748 747 746 745 743 742 741 740 738 737
805 804 804 803 803 802 802 801 801 801 800 799 798 798 797 797 796 795 794 793 793 792 792 791 790 789 789 788 787 787 787 786 786 785 784 783 782 781 780 779 778 777 777 776 775 774 773 772 772 771 770 769 768 768 767 766 765 765 764 763 762 761 760 759 758 757 757 756 755 754 753 752 750 749 748 747 746 745 744 743 742 741 739 738 737 735
804 804 803 803 802 802 801 800 800 799 799 798 797 797 796 795 794 793 792 792 791 791 790 789 789 788 787 787 786 786 785 785 784 783 782 782 781 780 779 778 777 776 775 774 773 773 772 771 770 769 769 768 767 766 766 765 764 763 762 761 760 759 758 757 757 756 755 754 753 752 751 750 749 747 747 746 744 743 742 741 740 739 737 736 735 734
803 803 803 802 802 801 800 799 799 798 797 797 796 795 794 794 793 792 792 791 790 789 788 788 787 787 786 785 785 784 784 783 783 782 781 780 779 778 777 777 776 775 774 773 772 772 771 770 769 768 767 767 766 765 764 763 762 762 761 760 759 758 757 756 755 754 753 752 751 750 749 748 747 746 745 744 743 742 741 739 738 737 736 734 733 732
802 802 802 801 801 800 799 798 798 797 797 795 794 793 793 792 792 791 790 790 789 788 787 787 786 786 785 784 784 783 783 782 781 781 780 779 778 777 776 775 774 773 772 772 771 770 769 768 768 767 766 765 764 763 762 762 761 760 759 758 757 756 755 755 754 753 752 751 750 749 747 746 745 744 743 742 741 740 739 737 736 735 734 733 732 731
802 801 801 801 800 799 798 797 797 796 796 795 793 792 791 791 790 790 789 788 788 787 786 785 785 784 784 783 783 782 782 781 780 779 778 777 776 775 774 774 773 772 771 770 770 769 768 767 766 766 765 764 763 762 761 760 759 758 757 756 755 755 754 753 752 751 750 749 748 747 746 745 744 742 742 740 739 738 737 736 735 734 732 732 730 729
801 801 800 800 799 798 797 796 795 795 795 794 793 792 791 789 789 788 788 787 787 786 785 784 783 783 782 782 782 781 780 779 778 777 776 775 775 774 773 772 772 771 770 769 768 768 767 766 765 764 763 762 762 761 760 758 757 757 756 755 754 753 752 751 750 749 748 747 746 745 744 743 742 741 740 739 737 736 735 734 733 732 731 730 729 728
801 800 799 798 798 797 797 795 794 794 794 793 792 792 791 789 788 787 786 786 785 785 784 784 783 782 781 781 780 780 779 777 777 776 775 774 773 773 772 772 771 770 769 768 767 767 766 764 763 763 762 761 760 759 758 757 756 755 754 753 752 752 751 750 749 748 747 746 745 744 742 742 740 739 738 737 736 735 734 733 732 731 730 728 727 726
800 799 799 798 797 797 796 795 793 793 793 792 791 791 790 789 788 787 785 784 784 784 783 783 782 781 780 779 778 778 777 776 775 774 773 773 772 772 771 770 770 769 768 767 767 766 764 763 762 762 761 760 759 758 757 756 755 754 753 752 751 750 749 748 747 746 745 744 743 742 741 740 739 737 737 735 734 733 732 731 730 729 728 727 725 724
799 799 798 797 796 796 795 794 793 793 792 792 790 789 789 789 788 787 786 784 783 782 782 781 781 781 780 778 777 776 775 774 773 772 772 771 771 770 769 769 768 767 766 766 765 764 763 762 761 760 760 759 757 757 755 754 753 752 752 751 750 749 748 747 746 745 744 743 742 740 739 738 737 736 735 733 732 732 730 729 728 727 726 725 724 722
799 798 797 797 796 795 794 793 792 792 792 791 790 789 788 787 787 787 786 784 783 782 782 780 779 779 778 777 776 775 773 773 772 771 770 770 769 769 768 767 766 765 764 763 762 762 762 761 760 759 758 757 756 755 754 753 752 751 750 750 749 747 747 746 744 743 742 741 740 739 737 736 735 734 733 732 731 730 729 727 726 725 724 723 722 721
798 797 797 796 795 794 794 793 792 792 791 790 789 788 787 787 787 786 785 784 783 782 782 780 778 777 776 776 775 774 773 772 771 770 770 769 769 768 767 766 764 763 762 762 761 760 760 759 758 757 757 755 754 753 752 752 751 750 749 748 747 746 745 744 743 742 741 739 738 737 736 735 733 732 731 730 729 728 727 726 725 723 722 721 720 719
797 797 796 795 794 794 793 792 792 791 790 789 789 788 787 786 786 786 785 783 782 781 781 779 777 776 775 774 774 773 772 771 771 770 769 768 768 767 766 765 763 762 762 761 760 759 759 758 757 756 755 754 753 752 751 750 749 748 747 747 746 745 744 742 742 740 739 737 736 735 734 733 732 731 730 728 727 726 725 724 723 722 721 720 718 717
796 796 795 794 793 793 792 792 791 790 789 788 788 787 787 786 785 785 784 783 782 781 780 778 776 774 773 773 773 772 772 771 770 769 768 767 766 766 765 764 762 761 761 760 759 758 757 757 756 755 753 752 752 751 750 749 748 747 747 746 744 743 742 741 740 739 737 736 735 733 732 731 730 729 728 727 726 725 723 722 721 720 719 717 717 715
795 795 794 793 792 792 791 791 790 790 789 788 787 787 787 786 785 784 783 782 781 780 780 778 777 774 772 772 772 772 772 771 770 768 767 765 764 764 764 763 762 760 759 759 758 757 756 755 754 753 752 752 751 750 749 748 747 746 745 744 743 742 741 740 738 737 736 734 733 732 731 730 729 727 726 725 724 723 722 721 719 718 717 716 715 713
795 794 793 793 792 791 791 790 790 789 788 787 787 786 786 785 785 784 782 782 781 780 779 778 777 775 773 772 772 772 772 771 769 767 766 764 763 763 763 762 761 759 758 757 757 757 756 755 753 752 752 751 750 749 748 747 746 745 744 743 742 741 739 738 737 735 734 733 732 731 729 728 727 726 725 723 722 721 720 719 717 717 715 714 713 712
793 793 793 792 792 791 790 790 789 788 787 787 786 785 784 784 783 783 782 781 781 780 779 778 777 775 774 772 771 771 771 770 768 767 765 763 762 762 762 761 760 758 757 757 756 756 755 754 753 752 751 750 749 748 747 746 745 744 742 742 740 739 738 737 735 734 733 732 730 729 728 727 725 724 723 722 721 719 718 717 716 715 713 712 711 710
793 793 792 792 791 790 789 789 788 788 787 787 786 785 783 782 782 782 781 781 780 780 779 778 777 775 774 772 771 770 770 769 768 766 764 763 762 762 761 760 759 758 757 756 756 755 754 753 752 751 750 749 748 747 746 745 743 742 741 740 739 738 737 735 734 732 731 730 729 727 726 725 724 723 722 720 719 718 717 715 714 713 712 710 709 708
792 792 792 792 791 790 789 788 788 787 787 786 785 784 783 782 781 781 781 780 779 779 778 777 776 775 774 772 771 770 769 768 767 766 764 762 762 761 761 760 759 758 757 756 755 754 753 752 751 750 748 747 747 746 745 743 742 741 740 739 738 737 735 734 732 731 730 729 727 726 725 724 722 721 720 719 717 716 715 714 712 711 710 708 707 706
792 792 791 791 790 790 789 788 787 787 787 786 785 784 783 782 781 780 779 779 778 777 777 776 775 774 773 772 771 770 769 768 767 766 764 762 761 761 761 760 759 758 757 755 754 753 752 751 750 748 747 747 746 745 743 742 741 740 739 738 737 735 734 733 732 730 729 727 726 725 723 722 721 720 718 717 716 715 713 712 711 709 708 707 705 704
792 792 791 790 790 789 789 788 787 787 786 786 785 784 783 782 781 780 779 778 778 777 776 775 775 774 773 772 771 770 769 768 767 766 765 763 761 760 760 759 758 757 756 755 753 752 751 750 749 747 747 746 744 743 742 741 740 739 738 737 736 734 733 732 730 729 727 726 725 723 722 721 720 718 717 716 714 713 712 711 709 708 707 705 704 702
792 791 790 790 790 789 788 787 787 786 785 785 784 783 783 782 781 780 779 778 778 777 776 775 774 773 772 772 771 770 769 767 767 766 765 763 762 761 760 759 758 757 755 754 753 752 750 749 747 746 745 744 743 742 741 740 739 738 737 736 734 733 732 731 729 728 727 725 724 722 721 720 718 717 716 714 713 712 710 709 708 706 705 703 702 701
791 791 790 790 789 789 788 787 787 786 785 784 783 783 782 781 780 779 779 778 777 777 776 775 774 773 772 771 770 769 768 767 767 766 765 763 762 761 760 759 758 757 755 753 752 751 750 748 746 745 744 743 742 741 740 739 738 737 736 735 733 732 731 729 728 727 725 724 722 721 720 719 717 716 715 713 712 710 709 708 706 705 703 702 700 699
791 791 790 789 789 788 787 787 786 785 785 784 783 782 781 780 779 778 778 778 777 777 776 775 774 773 772 772 770 769 768 767 766 765 765 764 762 761 760 759 758 757 755 753 752 750 749 747 745 744 743 742 741 740 739 738 737 736 735 734 732 731 730 728 727 726 724 723 722 720 719 717 716 715 713 712 711 709 708 706 705 703 702 700 698 697
791 790 789 788 788 787 787 786 785 785 784 784 783 782 781 779 779 778 778 778 777 777 776 776 775 774 772 772 771 769 768 767 766 765 765 764 763 761 760 759 758 757 755 753 751 750 749 747 745 743 742 741 740 739 738 737 737 735 734 733 732 730 729 727 726 725 723 722 720 719 718 716 715 713 712 711 709 708 707 705 703 702 700 698 697 695
790 789 788 788 787 787 786 786 785 785 784 783 783 782 780 780 779 779 779 778 778 777 777 777 776 774 773 772 771 769 768 767 766 766 765 764 763 762 760 759 758 757 755 753 751 749 748 746 744 743 741 740 739 738 737 737 736 734 733 732 731 729 728 727 725 724 722 721 719 718 717 715 714 712 711 710 708 707 705 704 702 701 699 697 696 694
789 789 788 788 787 787 786 786 785 784 784 783 783 782 781 780 780 780 779 779 778 778 777 777 776 775 773 772 771 769 768 767 767 766 765 764 763 762 761 760 759 757 756 753 750 747 746 745 744 742 741 740 739 737 737 736 734 733 732 731 729 728 727 726 724 723 721 720 718 717 716 714 713 711 710 708 707 706 704 703 701 700 698 696 694 693
789 788 788 787 787 787 786 786 785 784 784 783 783 782 782 781 781 780 780 779 779 778 778 777 776 775 774 772 771 769 768 767 767 766 765 764 763 762 761 760 759 758 757 754 750 747 744 743 742 742 741 740 738 737 736 735 733 732 731 729 728 727 726 725 723 722 720 719 717 716 715 713 712 710 709 707 706 705 703 702 700 699 697 695 693 692
789 788 788 787 787 787 786 785 784 784 783 783 783 782 782 781 781 781 780 780 779 779 778 777 776 775 774 773 771 770 768 768 767 767 766 765 764 763 762 761 759 758 757 756 753 749 745 742 741 740 740 739 738 737 736 734 733 732 730 729 727 726 725 724 722 721 719 718 717 715 714 712 711 709 708 707 705 703 702 701 699 698 697 695 693 691
789 788 788 787 787 787 786 785 784 784 783 783 783 782 782 782 781 781 780 780 779 778 778 777 776 775 774 774 772 771 769 768 768 767 766 765 764 763 762 761 760 759 758 757 756 753 749 744 741 739 739 738 737 736 735 734 733 732 730 729 727 725 724 723 722 720 718 717 716 714 713 711 710 708 707 706 704 702 701 700 699 697 696 694 692 691
789 788 788 787 787 786 786 785 784 784 783 783 783 782 782 781 781 780 780 779 779 778 777 777 776 775 774 773 773 772 770 769 768 767 767 766 764 763 762 761 760 759 757 757 756 755 752 748 745 741 739 738 737 736 735 734 732 732 730 728 727 725 723 722 721 719 718 716 715 713 712 710 709 707 706 705 703 702 700 699 698 697 696 694 692 690
789 788 788 787 787 786 786 785 785 784 784 783 783 782 782 781 780 780 779 779 778 777 777 777 776 775 774 773 772 771 770 768 768 767 767 766 764 763 762 761 760 759 757 756 755 753 752 750 747 744 741 738 736 735 735 733 732 731 730 728 727 725 723 722 720 719 717 716 714 712 711 709 708 707 705 703 702 701 699 698 697 696 695 693 692 690
789 788 788 787 787 786 786 785 785 784 784 783 782 782 781 781 780 780 779 778 778 777 777 776 776 775 774 773 772 771 769 768 767 767 766 765 764 763 762 761 760 759 757 756 755 753 751 749 747 746 743 739 736 734 734 733 732 731 729 728 727 725 723 722 720 718 717 715 714 712 711 709 707 706 704 703 702 700 699 697 696 694 693 692 691 690
789 789 788 788 787 787 786 785 785 784 783 783 782 781 781 781 780 779 779 778 777 777 776 776 775 775 774 773 772 771 769 767 767 766 766 765 764 763 762 761 760 759 758 756 755 753 752 749 747 746 744 741 738 735 733 732 731 730 728 727 726 725 723 722 720 719 717 715 714 712 711 709 707 706 704 702 701 699 698 696 695 693 692 691 690 689
790 789 789 788 787 787 786 785 785 784 783 782 782 781 781 780 780 779 779 778 777 777 776 775 775 774 774 773 772 771 769 767 767 766 765 765 764 763 762 761 760 759 758 757 755 753 752 749 747 745 743 742 740 737 734 732 730 729 727 727 725 724 722 721 720 719 717 716 714 712 711 709 707 705 703 702 700 698 697 695 693 692 691 690 689 687
790 789 789 788 787 787 786 785 784 784 783 782 781 781 781 780 780 779 779 778 777 776 776 775 775 774 773 773 772 770 769 767 767 766 765 764 764 763 762 760 759 758 757 757 755 753 752 750 747 745 743 742 740 738 736 734 731 729 727 726 725 724 722 721 720 719 717 716 714 713 711 709 707 705 703 702 699 697 696 694 692 691 690 689 687 686
791 790 789 789 788 787 786 785 784 783 782 782 782 781 781 780 780 779 778 778 777 776 776 775 774 773 773 772 771 770 769 768 767 766 765 764 763 763 762 760 759 757 757 756 755 753 752 751 749 747 745 742 740 738 736 735 733 731 728 726 724 723 722 721 720 719 718 716 714 712 711 709 707 705 703 702 700 698 696 694 692 691 689 688 686 685
792 791 790 789 788 787 787 786 784 783 782 782 782 781 781 780 780 779 778 777 777 776 775 775 774 773 772 772 771 770 769 768 767 766 765 764 763 762 761 760 759 757 756 755 754 753 752 751 749 747 746 744 741 739 736 735 733 732 730 727 725 722 721 721 720 719 718 717 715 713 711 709 707 706 704 702 700 698 697 695 693 691 690 688 687 685
792 792 791 790 789 787 787 785 784 783 782 782 782 781 781 780 780 779 778 777 777 776 775 774 774 773 772 772 771 770 769 768 767 766 765 764 763 762 761 760 759 757 756 755 754 753 752 750 749 747 745 744 742 739 737 735 733 732 731 729 727 724 722 721 720 719 718 716 715 713 711 709 707 705 703 702 700 698 697 695 693 691 690 688 687 686
793 792 791 790 789 787 786 785 783 783 782 782 782 781 781 780 780 779 778 777 777 776 775 774 774 773 772 771 770 770 769 768 767 766 765 764 763 762 761 760 759 757 756 755 753 752 751 750 748 747 745 743 742 739 737 734 733 732 732 730 728 725 722 721 720 719 718 716 715 713 712 710 707 705 703 701 699 697 696 695 693 692 690 688 687 685
794 793 792 790 789 787 786 785 784 783 782 782 782 782 781 781 780 779 778 778 777 776 775 774 774 773 772 770 770 769 768 767 767 766 765 764 763 762 761 760 759 757 756 754 752 751 749 748 747 746 745 743 742 740 737 734 732 732 731 730 729 727 723 721 719 718 717 716 715 713 712 710 708 706 703 701 699 697 695 694 692 691 690 688 686 685
794 793 792 790 789 787 786 785 784 783 783 782 782 782 781 781 780 780 779 778 777 776 775 775 774 773 772 771 769 768 767 767 766 765 765 764 763 762 761 759 758 757 756 754 752 750 748 747 746 745 743 742 741 740 737 735 733 732 731 730 729 728 726 724 721 719 717 716 715 713 712 710 708 705 703 701 698 697 695 693 692 690 688 687 686 684
794 793 792 791 789 788 787 786 785 784 784 783 782 782 782 781 781 780 779 778 777 777 776 775 774 773 772 771 770 768 767 766 765 764 764 763 762 761 760 759 757 756 755 753 752 751 749 747 744 743 742 741 740 739 737 735 733 732 730 729 728 727 726 724 722 721 718 717 715 713 712 710 708 706 703 700 698 696 695 693 691 690 688 687 685 684
794 793 792 791 790 789 788 787 786 785 784 783 783 782 782 782 781 780 780 779 778 777 776 776 775 774 772 771 770 769 767 766 764 763 762 762 761 760 759 758 757 755 754 752 751 750 748 746 744 742 740 739 738 737 736 735 733 732 730 729 728 726 725 723 722 721 719 717 715 713 712 710 708 706 704 701 699 696 694 693 692 690 688 687 685 683
795 794 792 791 790 789 788 787 786 785 784 783 783 782 782 782 781 781 780 779 778 777 777 776 775 774 773 772 771 769 768 767 765 763 762 761 760 759 758 757 756 755 753 752 750 748 747 745 744 742 741 739 737 736 735 734 733 732 731 729 727 726 724 723 721 720 719 718 716 714 712 709 707 706 704 702 699 697 694 693 691 690 688 687 685 684
795 794 793 792 791 790 789 787 787 786 784 783 783 782 782 782 782 781 780 779 778 778 777 776 775 774 773 772 772 771 769 768 766 764 763 761 760 758 757 756 755 753 752 751 749 747 746 744 743 742 740 739 738 737 735 734 733 732 731 729 728 726 724 722 721 720 719 717 716 714 712 710 708 707 704 702 700 697 695 693 691 690 689 687 686 684
796 795 793 792 791 790 789 788 787 786 785 784 783 782 782 782 782 781 781 780 779 778 777 777 776 774 773 773 772 771 770 768 767 765 763 762 760 759 757 755 753 752 750 749 747 746 744 743 742 741 740 740 739 737 736 734 733 732 731 729 728 726 724 722 721 719 718 717 715 714 712 711 709 707 705 703 701 698 696 693 692 690 688 687 686 685
796 795 794 793 792 791 790 789 787 787 785 784 783 783 783 782 782 782 781 780 779 779 778 777 776 775 774 773 772 771 770 768 767 765 764 763 761 759 758 756 753 751 749 747 745 744 742 741 740 740 740 740 739 738 736 734 732 731 730 729 728 726 725 722 721 719 718 716 715 713 712 710 709 707 706 704 702 699 696 694 692 690 688 687 686 684
797 796 795 793 792 791 790 789 788 787 786 785 784 784 783 783 782 782 781 781 780 779 778 778 777 776 775 774 773 772 770 769 767 766 765 763 762 761 759 757 755 753 751 748 746 744 742 741 739 738 738 739 739 738 737 735 733 731 729 728 727 726 724 722 721 719 718 716 715 713 712 710 708 707 706 704 702 699 697 694 692 690 688 687 685 684